Regional Weather Roundup
Issued by NWS

Home | Current Version | Previous Version | Text Only | Print | Product List | Glossary On
Versions: 1 2 3 4 5 6 7 8 9 10 11 12 13 14 15 16 17 18 19 20 21 22 23 24 25 26 27 28 29 30 31 32 33 34 35 36 37 38 39 40 41 42 43 44 45 46 47 48 49 50
000
ASUS43 KLSX 300707
RWRMO

WEATHER SUMMARY FOR MISSOURI
NATIONAL WEATHER SERVICE SPRINGFIELD MO
200 AM CDT WED JUL 30 2014

NOTE: "FAIR" INDICATES FEW OR NO CLOUDS BELOW 12,000 FEET WITH NO
       SIGNIFICANT WEATHER AND/OR OBSTRUCTIONS TO VISIBILITY.
       CURRENT SKY AND/OR WEATHER CONDITIONS ARE NOT AVAILABLE FOR
       CHILLICOTHE AND FARMINGTON.

MOZ001>031-035>038-043-044-053-054-300800-
...NORTHERN AND WESTERN MISSOURI...

CITY           SKY/WX    TMP DP  RH WIND       PRES   REMARKS
KANSAS CTY INT PTCLDY    67  59  75 CALM      30.11S
KANSAS C DTWN  MOCLDY    71  59  65 NE5       30.10S
LEE`S SUMMIT   MOCLDY    68  58  70 CALM      30.11F
ST JOSEPH      PTCLDY    59  57  93 CALM      30.11F
CHILLICOTHE      N/A     61  58  90 CALM      30.11F
KIRKSVILLE     CLOUDY    60  58  92 W3        30.11F

$$
MOZ066>068-077>081-088>096-101>105-300800-
...SOUTHWEST MISSOURI...

CITY           SKY/WX    TMP DP  RH WIND       PRES   REMARKS
SPRINGFIELD    CLOUDY    71  58  63 CALM      30.09F
JOPLIN         CLOUDY    67  63  87 CALM      30.09F

$$
MOZ032>034-039>042-045>050-055>058-069>072-300800-
...CENTRAL MISSOURI...

CITY           SKY/WX    TMP DP  RH WIND       PRES   REMARKS
COLUMBIA       MOCLDY    64  56  75 SE5       30.10F
JEFFERSON CITY CLEAR     62  57  83 CALM      30.09F
ROLLA          CLOUDY    68  54  60 E6        30.09F
SEDALIA        CLEAR     65  57  75 CALM      30.10F
WHITEMAN AFB   CLEAR     61  53  74 CALM      30.09S
OSAGE BEACH    CLEAR     61  55  82 CALM      30.10S

$$
MOZ051-052-059>065-300800-
...EAST CENTRAL MISSOURI...

CITY           SKY/WX    TMP DP  RH WIND       PRES   REMARKS
ST LOUIS INTL  MOCLDY    67  57  70 CALM      30.09F
SPIRIT OF STL  CLOUDY    63  59  87 CALM      30.08F
ST CHARLES     PTCLDY    58  55  90 CALM      30.08F

$$
MOZ072>076-082>087-097>100-106>115-300800-
...SOUTH CENTRAL AND SOUTHEAST MISSOURI...

CITY           SKY/WX    TMP DP  RH WIND       PRES   REMARKS
CAPE GIRARDEAU CLEAR     60  57  89 CALM      30.10S
FARMINGTON     CLOUDY    61  55  82 CALM      30.13F
POPLAR BLUFF   CLEAR     60  56  86 CALM      30.09F
WEST PLAINS    PTCLDY    64  58  80 CALM      30.11F

$$


USA.gov is the U.S. government's official web portal to all federal, state and local government web resources and services.